Change the Weather History Date:

Friday, May 3, 2013

  Actual Average Record
Temperature  
Mean Temperature 78 °F -  
Max Temperature 87 °F 87 °F 98 °F (2000)
Min Temperature 64 °F 60 °F 53 °F (2002)
Cooling Degree Days 12    
Growing Degree Days 28 (Base 50)    
Moisture  
Dew Point 17 °F    
Average Humidity 11    
Maximum Humidity 18    
Minimum Humidity 6    
Precipitation  
Precipitation 0.00 in - - ()
Sea Level Pressure  
Sea Level Pressure 29.95 in    
Wind  
Wind Speed 13 mph (East)    
Max Wind Speed 23 mph    
Max Gust Speed 30 mph    
Visibility 10 miles    
Events      
Averages and records for this station are not official NWS values.
T = Trace of Precipitation, MM = Missing Value Source: NWS Daily Summary

Daily Weather History Graph

Daily Weather History Graph

Search for Another Location

Airport or City:

Trip Planner

Search our weather history database for the weather conditions in past years. The results will help you decide how hot, cold, wet, or windy it might be!

Date:

Astronomy

May. 03, 2013 Rise Set
Actual Time 5:36 AM MST 7:11 PM MST
Civil Twilight 5:09 AM MST 7:37 PM MST
Nautical Twilight 4:37 AM MST 8:09 PM MST
Astronomical Twilight 4:04 AM MST 8:43 PM MST
Moon 1:43 AM MST (5/3) 1:27 PM MST (5/3)
Length of Visible Light 14h 27m
Length of Day
13h 34m
Waning Crescent, 36% of the Moon is Illuminated
May 3
Waning Crescent
May 9
New
May 17
First Quarter
May 24
Full
May 31
Last Quarter

Hourly Weather History & Observations

Time (MST) Temp. Dew Point Humidity Pressure Visibility Wind Dir Wind Speed Gust Speed Precip Events Conditions
12:15 AM 78.8 °F 14.0 °F 9% 30.06 in 10.0 mi East 13.8 mph - N/A   Clear
12:35 AM 78.8 °F 14.0 °F 9% 30.05 in 10.0 mi East 12.7 mph - N/A   Clear
12:55 AM 75.2 °F 14.0 °F 10% 30.05 in 10.0 mi East 11.5 mph - N/A   Clear
1:15 AM 75.2 °F 14.0 °F 10% 30.05 in 10.0 mi East 13.8 mph - N/A   Clear
1:35 AM 73.4 °F 17.6 °F 12% 30.06 in 10.0 mi East 11.5 mph - N/A   Clear
1:55 AM 73.4 °F 17.6 °F 12% 30.06 in 10.0 mi ESE 16.1 mph 21.9 mph N/A   Clear
2:15 AM 71.6 °F 17.6 °F 13% 30.06 in 7.0 mi ESE 18.4 mph 23.0 mph N/A   Clear
2:35 AM 71.6 °F 17.6 °F 13% 30.07 in 7.0 mi ESE 15.0 mph 24.2 mph N/A   Clear
2:55 AM 71.6 °F 19.4 °F 14% 30.07 in 10.0 mi ESE 13.8 mph - N/A   Clear
3:15 AM 71.6 °F 19.4 °F 14% 30.07 in 10.0 mi ESE 15.0 mph - N/A   Clear
3:35 AM 71.6 °F 19.4 °F 14% 30.06 in 10.0 mi ESE 18.4 mph 23.0 mph N/A   Clear
3:55 AM 71.6 °F 19.4 °F 14% 30.05 in 5.0 mi ESE 21.9 mph 25.3 mph N/A   Haze
4:15 AM 71.6 °F 19.4 °F 14% 30.06 in 5.0 mi ESE 23.0 mph 28.8 mph N/A   Haze
4:35 AM 69.8 °F 17.6 °F 14% 30.06 in 10.0 mi ESE 21.9 mph 26.5 mph N/A   Clear
4:47 AM 71.6 °F 17.6 °F 13% 30.07 in 20.0 mi ESE 15.0 mph 26.5 mph N/A   Clear
4:55 AM 69.8 °F 17.6 °F 14% 30.06 in 7.0 mi ESE 20.7 mph - N/A   Clear
5:15 AM 69.8 °F 19.4 °F 15% 30.07 in 7.0 mi ESE 19.6 mph 28.8 mph N/A   Clear
5:47 AM 69.8 °F 15.8 °F 13% 30.07 in 6.0 mi ESE 16.1 mph 27.6 mph N/A   Haze
6:47 AM 71.6 °F 17.6 °F 13% 30.08 in 6.0 mi East 17.3 mph - N/A   Haze
7:47 AM 73.4 °F 17.6 °F 12% 30.08 in 6.0 mi East 20.7 mph 27.6 mph N/A   Haze
8:51 AM 75.2 °F 17.6 °F 11% 30.06 in 6.0 mi East 21.9 mph 28.8 mph N/A   Haze
9:54 AM 78.8 °F 17.6 °F 10% 30.05 in 6.0 mi East 19.6 mph 29.9 mph N/A   Haze
10:47 AM 80.6 °F 17.6 °F 10% 30.03 in 6.0 mi East 17.3 mph 21.9 mph N/A   Haze
11:47 AM 82.4 °F 17.6 °F 9% 30.00 in 6.0 mi East 13.8 mph 24.2 mph N/A   Haze
12:47 PM 84.2 °F 15.8 °F 8% 29.97 in 10.0 mi East 10.4 mph 17.3 mph N/A   Scattered Clouds
1:47 PM 86.0 °F 15.8 °F 7% 29.93 in 10.0 mi SSE 9.2 mph 17.3 mph N/A   Scattered Clouds
2:47 PM 87.8 °F 14.0 °F 6% 29.90 in 15.0 mi ESE 11.5 mph - N/A   Scattered Clouds
3:47 PM 87.8 °F 12.2 °F 6% 29.86 in 15.0 mi East 11.5 mph - N/A   Scattered Clouds
4:47 PM 87.8 °F 12.2 °F 6% 29.84 in 15.0 mi ENE 5.8 mph - N/A   Scattered Clouds
5:47 PM 87.8 °F 12.2 °F 6% 29.83 in 15.0 mi Variable 5.8 mph - N/A   Scattered Clouds
6:47 PM 86.0 °F 12.2 °F 6% 29.82 in 15.0 mi Variable 4.6 mph - N/A   Scattered Clouds
7:47 PM 84.2 °F 12.2 °F 7% 29.82 in 20.0 mi North 3.5 mph - N/A   Scattered Clouds
7:55 PM 80.6 °F 12.2 °F 8% 29.82 in 10.0 mi North 3.5 mph - N/A   Clear
8:15 PM 78.8 °F 14.0 °F 9% 29.82 in 10.0 mi NNE 4.6 mph - N/A   Clear
8:35 PM 78.8 °F 14.0 °F 9% 29.82 in 10.0 mi NNE 5.8 mph - N/A   Clear
8:47 PM 84.2 °F 15.8 °F 8% 29.82 in 20.0 mi NNE 4.6 mph - N/A   Scattered Clouds
8:55 PM 78.8 °F 17.6 °F 10% 29.82 in 10.0 mi NNE 5.8 mph - N/A   Clear
9:15 PM 75.2 °F 17.6 °F 11% 29.83 in 10.0 mi North 3.5 mph - N/A   Clear
9:35 PM 75.2 °F 17.6 °F 11% 29.83 in 10.0 mi ESE 4.6 mph - N/A   Clear
9:47 PM 75.2 °F 17.6 °F 11% 29.83 in 20.0 mi Calm Calm - N/A   Scattered Clouds
9:55 PM 71.6 °F 21.2 °F 15% 29.83 in 10.0 mi East 3.5 mph - N/A   Clear
10:15 PM 71.6 °F 21.2 °F 15% 29.83 in 10.0 mi Calm Calm - N/A   Clear
10:35 PM 71.6 °F 23.0 °F 16% 29.82 in 10.0 mi Calm Calm - N/A   Clear
10:47 PM 73.4 °F 23.0 °F 15% 29.82 in 20.0 mi Calm Calm - N/A   Scattered Clouds
10:55 PM 69.8 °F 23.0 °F 17% 29.82 in 10.0 mi Calm Calm - N/A   Clear
11:15 PM 69.8 °F 21.2 °F 16% 29.82 in 10.0 mi East 4.6 mph - N/A   Clear
11:35 PM 68.0 °F 19.4 °F 16% 29.82 in 10.0 mi ESE 6.9 mph - N/A   Clear
11:55 PM 64.4 °F 19.4 °F 18% 29.81 in 10.0 mi East 6.9 mph - N/A   Clear